Погода в Руйиене

Латвия     57°53′47″N   25°19′51″E
темп.,
°C
ветер,
м/с
пор.,
м/с
влажн.,
%
обл.,
%
осадки,
мм/ч
давл.,
гПа
погр.,
м
5 марта, пт
пт523:00−2зсз487552 0.0 1010853
02:00−3сз598573 0.1 1010829
05:00−4ссз596188 0.1 10121127
08:00−4ссз485344 0.1 10131047
11:00−1сз364211 0.0 10141659
14:00−1сз355654 0.1 10151169
17:00−2с354899 0.3 10161446
20:00−4с385563 0.3 1019489
6 марта, сб
сб623:00−5сз26640 0.0 1021279
02:00−5зсз25730 0.0 1022163
05:00−6з25790 0.0 1022164
08:00−5зюз38770 0.0 1021334
11:000зюз6115138 0.0 10191306
14:00+1зюз8145569 0.0 10151489
17:00+1зюз81753100 0.0 10111430
20:000зюз81777100 0.1 10071300
7 марта, вс
вс723:000з81595100 2.6 10031098
02:00−2сз61367100 5.3 10021531
05:00−5зсз4125233 0.0 10031300
08:00−4з5145233 0.1 10031525
11:00−2зсз8146360 0.1 10011759
14:00−1з8145180 0.4 9992109
17:00−2зсз71359100 0.3 9991739
20:00−5сз61274100 0.4 10021451
8 марта, пн
пн823:00−6ссз387497 0.1 10061098
02:00−7сз377955 0.1 1008438
05:00−7ссз378957 0.1 1009753
08:00−8с477778 0.3 1012973
11:00−7с5766100 0.1 10141000
14:00−5с4857100 0.1 10171244
17:00−6с485447 0.0 10181204
20:00−9с277224 0.0 1021302
9 марта, вт
вт923:00−9ссз22790 0.0 102275
02:00−9зсз22800 0.0 102347
05:00−9з227810 0.0 102461
08:00−8зюз267612 0.0 1024203
11:00−2з47530 0.0 1025905
14:00−1з58530 0.0 10251115
17:00−2зюз496125 0.0 10241115
20:00−4зюз3117630 0.0 1024541